Weather History for Fairhope, AL

Change the Weather History Date:

Thursday, February 7, 2013

  Actual Average (KBFM) Record (KBFM)
Temperature  
Mean Temperature 65 °F -  
Max Temperature 77 °F 59 °F 77 °F (1999)
Min Temperature 51 °F 42 °F 30 °F (1998)
Growing Degree Days 15 (Base 50)    
Moisture  
Dew Point 59 °F    
Average Humidity 83    
Maximum Humidity 100    
Minimum Humidity 50    
Precipitation  
Precipitation 1.35 in - - ()
Sea Level Pressure  
Sea Level Pressure 29.90 in    
Wind  
Wind Speed 7 mph (NNE)    
Max Wind Speed 23 mph    
Max Gust Speed 33 mph    
Visibility 8 miles    
Events Rain    
Averages and records for this station are not official NWS values.
T = Trace of Precipitation, MM = Missing Value Source: NWS Daily Summary

Daily Weather History Graph

Daily Weather History Graph

Search for Another Location

Airport:

Trip Planner

Search our weather history database for the weather conditions in past years. The results will help you decide how hot, cold, wet, or windy it might be!

Date:

Astronomy

Feb. 07, 2013 Rise Set
Actual Time 6:38 AM CST 5:33 PM CST
Civil Twilight 6:13 AM CST 5:58 PM CST
Nautical Twilight 5:44 AM CST 6:26 PM CST
Astronomical Twilight 5:16 AM CST 6:55 PM CST
Moon 4:11 AM CST (2/7) 3:03 PM CST (2/7)
Length of Visible Light 11h 44m
Length of Day
10h 55m
Waning Crescent, 9% of the Moon is Illuminated
Feb 7
Waning Crescent
Feb 10
New
Feb 17
First Quarter
Feb 25
Full
Mar 4
Last Quarter

Hourly Weather History & Observations

Time (CST) Temp. Dew Point Humidity Pressure Visibility Wind Dir Wind Speed Gust Speed Precip Events Conditions
12:15 AM 60.8 °F 60.8 °F 100% 30.03 in 7.0 mi NE 3.5 mph - N/A   Light Drizzle
12:35 AM 60.8 °F 60.8 °F 100% 30.03 in 7.0 mi Calm Calm - N/A   Mostly Cloudy
12:55 AM 60.8 °F 60.8 °F 100% 30.02 in 7.0 mi ENE 3.5 mph - N/A   Overcast
1:15 AM 60.8 °F 60.8 °F 100% 30.00 in 10.0 mi ENE 6.9 mph - N/A Rain Rain
1:35 AM 60.8 °F 60.8 °F 100% 29.99 in 10.0 mi NE 5.8 mph - 0.01 in Rain Light Rain
1:55 AM 60.8 °F 60.8 °F 100% 29.98 in 10.0 mi ENE 3.5 mph - 0.01 in   Light Drizzle
2:15 AM 60.8 °F 60.8 °F 100% 29.95 in 10.0 mi NE 6.9 mph - N/A Rain Light Rain
2:35 AM 60.8 °F 60.8 °F 100% 29.95 in 7.0 mi ENE 6.9 mph - N/A   Light Drizzle
2:55 AM 62.6 °F 60.8 °F 94% 29.99 in 10.0 mi Calm Calm - N/A Rain Light Rain
3:15 AM 62.6 °F 60.8 °F 94% 29.98 in 4.0 mi NNE 3.5 mph - 0.03 in Rain Rain
3:55 AM 62.6 °F 60.8 °F 94% 29.95 in 5.0 mi East 8.1 mph - 0.08 in Rain Rain
4:15 AM 62.6 °F 60.8 °F 94% 29.91 in 7.0 mi East 11.5 mph - 0.01 in Rain Light Rain
4:35 AM 62.6 °F 60.8 °F 94% 29.86 in 7.0 mi ESE 19.6 mph 24.2 mph 0.02 in Rain Light Rain
5:15 AM 62.6 °F 62.6 °F 100% 29.87 in 7.0 mi ESE 13.8 mph 21.9 mph 0.03 in Rain Rain
5:55 AM 62.6 °F 62.6 °F 100% 29.85 in 5.0 mi East 15.0 mph 18.4 mph 0.14 in Rain Rain
6:15 AM 62.6 °F 62.6 °F 100% 29.84 in 4.0 mi East 13.8 mph 20.7 mph 0.07 in Rain Heavy Rain
6:35 AM 62.6 °F 62.6 °F 100% 29.84 in 7.0 mi East 13.8 mph 20.7 mph 0.10 in Rain Heavy Rain
6:55 AM 62.6 °F 62.6 °F 100% 29.81 in 4.0 mi East 16.1 mph 21.9 mph 0.27 in Rain Rain
7:15 AM 62.6 °F 62.6 °F 100% 29.82 in 3.0 mi East 13.8 mph - 0.18 in Rain Rain
7:35 AM 62.6 °F 62.6 °F 100% 29.79 in 10.0 mi ENE 12.7 mph 18.4 mph 0.21 in Rain Light Rain
7:55 AM 62.6 °F 62.6 °F 100% 29.80 in 3.0 mi East 16.1 mph - 0.29 in Rain Heavy Rain
8:15 AM 60.8 °F 60.8 °F 100% 29.86 in 0.2 mi NNE 10.4 mph 33.4 mph 0.53 in Rain Heavy Rain
8:35 AM 60.8 °F 60.8 °F 100% 29.86 in 10.0 mi North 10.4 mph 23.0 mph 0.54 in Rain Light Rain
8:55 AM 62.6 °F 60.8 °F 94% 29.86 in 10.0 mi North 23.0 mph 28.8 mph 0.54 in   Scattered Clouds
9:15 AM 62.6 °F 60.8 °F 94% 29.89 in 10.0 mi WNW 10.4 mph 16.1 mph N/A   Mostly Cloudy
9:35 AM 64.4 °F 59.0 °F 83% 29.86 in 10.0 mi NNE 15.0 mph 23.0 mph N/A   Mostly Cloudy
9:55 AM 68.0 °F 59.0 °F 73% 29.86 in 10.0 mi NNE 20.7 mph 24.2 mph N/A   Scattered Clouds
10:35 AM 69.8 °F 57.2 °F 64% 29.87 in 10.0 mi North 16.1 mph 19.6 mph N/A   Clear
10:55 AM 71.6 °F 57.2 °F 60% 29.87 in 10.0 mi NNE 16.1 mph 21.9 mph N/A   Clear
11:15 AM 71.6 °F 55.4 °F 57% 29.87 in 7.0 mi NNE 12.7 mph 23.0 mph N/A   Scattered Clouds
11:35 AM 73.4 °F 59.0 °F 61% 29.87 in 10.0 mi NNE 11.5 mph - N/A   Clear
11:55 AM 73.4 °F 57.2 °F 57% 29.86 in 7.0 mi NNE 11.5 mph 18.4 mph N/A   Clear
12:15 PM 73.4 °F 57.2 °F 57% 29.87 in 10.0 mi North 9.2 mph - N/A   Clear
12:35 PM 73.4 °F 55.4 °F 53% 29.87 in 7.0 mi North 10.4 mph 16.1 mph N/A   Clear
12:55 PM 75.2 °F 55.4 °F 50% 29.86 in 10.0 mi North 8.1 mph - N/A   Clear
1:15 PM 73.4 °F 59.0 °F 61% 29.86 in 10.0 mi NW 9.2 mph - N/A   Clear
1:35 PM 73.4 °F 59.0 °F 61% 29.86 in 7.0 mi WNW 6.9 mph - N/A   Clear
1:55 PM 73.4 °F 57.2 °F 57% 29.86 in 10.0 mi NW 6.9 mph - N/A   Clear
2:15 PM 75.2 °F 55.4 °F 50% 29.86 in 10.0 mi NNW 5.8 mph - N/A   Clear
2:35 PM 75.2 °F 57.2 °F 53% 29.86 in 7.0 mi NW 8.1 mph - N/A   Clear
3:15 PM 75.2 °F 57.2 °F 53% 29.85 in 7.0 mi NW 6.9 mph - N/A   Mostly Cloudy
3:35 PM 77.0 °F 57.2 °F 50% 29.85 in 7.0 mi WNW 8.1 mph - N/A   Scattered Clouds
3:55 PM 75.2 °F 55.4 °F 50% 29.86 in 10.0 mi WSW 8.1 mph - N/A   Scattered Clouds
4:15 PM 71.6 °F 59.0 °F 64% 29.87 in 10.0 mi SW 5.8 mph - N/A   Clear
4:35 PM 69.8 °F 60.8 °F 73% 29.87 in 10.0 mi SW 6.9 mph - N/A   Clear
4:55 PM 69.8 °F 60.8 °F 73% 29.88 in 10.0 mi WSW 5.8 mph - N/A   Scattered Clouds
5:15 PM 68.0 °F 60.8 °F 78% 29.88 in 10.0 mi WSW 3.5 mph - N/A   Mostly Cloudy
5:35 PM 68.0 °F 60.8 °F 78% 29.89 in 7.0 mi Calm Calm - N/A   Overcast
5:55 PM 68.0 °F 59.0 °F 73% 29.89 in 10.0 mi NNW 5.8 mph - N/A   Overcast
6:15 PM 68.0 °F 59.0 °F 73% 29.90 in 10.0 mi NW 4.6 mph - N/A   Overcast
6:35 PM 66.2 °F 57.2 °F 73% 29.90 in 10.0 mi NW 5.8 mph - N/A   Scattered Clouds
6:55 PM 64.4 °F 57.2 °F 77% 29.91 in 7.0 mi Calm Calm - N/A   Clear
7:35 PM 62.6 °F 57.2 °F 82% 29.92 in 10.0 mi NW 4.6 mph - N/A   Clear
7:55 PM 62.6 °F 57.2 °F 82% 29.92 in 10.0 mi Calm Calm - N/A   Clear
8:15 PM 59.0 °F 57.2 °F 94% 29.93 in 10.0 mi Calm Calm - N/A   Clear
8:35 PM 57.2 °F 55.4 °F 94% 29.94 in 7.0 mi Calm Calm - N/A   Clear
8:55 PM 55.4 °F 55.4 °F 100% 29.94 in 10.0 mi Calm Calm - N/A   Clear
9:15 PM 57.2 °F 55.4 °F 94% 29.94 in 7.0 mi Calm Calm - N/A   Clear
9:35 PM 55.4 °F 55.4 °F 100% 29.94 in 7.0 mi Calm Calm - N/A   Clear
10:15 PM 55.4 °F 55.4 °F 100% 29.95 in 7.0 mi Calm Calm - N/A   Clear
10:35 PM 55.4 °F 55.4 °F 100% 29.95 in 7.0 mi Calm Calm - N/A   Clear
10:55 PM 55.4 °F 53.6 °F 94% 29.95 in 5.0 mi Calm Calm - N/A   Clear
11:15 PM 53.6 °F 53.6 °F 100% 29.96 in 5.0 mi Calm Calm - N/A   Clear
11:35 PM 51.8 °F 51.8 °F 100% 29.96 in 1.2 mi Calm Calm - N/A   Mist